DW7572 Weather Reports


Display with metric or nautical units.
time (UTC)temp
F
wind
direction
speed
MPH
gust
MPH
rain 1hr
in
rain 24hr
in
rain mn
in
humidity
%
barometer
mb
20260505053018 40 0.0 4.0 0.00 0.00 0.00 64 1007.4
20260505040016 43 293 1.0 7.0 0.00 0.00 0.00 57 1007.2
20260505033016 45 293 2.0 5.0 0.00 0.00 0.00 53 1007.3
20260505030036 46 315 6.0 10.0 0.00 0.00 0.00 50 1007.4
20260505023016 48 338 13.0 24.0 0.00 0.00 0.00 46 1007.1
20260505020016 49 338 18.0 28.0 0.00 0.00 0.00 44 1006.6
20260505013017 50 338 20.0 29.0 0.00 0.00 0.00 43 1006.2
20260505010035 52 338 23.0 34.0 0.00 0.00 0.00 42 1005.7
20260505003037 53 315 22.0 31.0 0.00 0.00 0.00 41 1005.2
20260505000016 54 315 22.0 31.0 0.00 0.00 0.00 40 1005.0
20260504233017 56 315 23.0 34.0 0.00 0.00 0.00 40 1004.7
20260504230018 56 315 25.0 35.0 0.00 0.00 0.00 42 1004.7
20260504223018 58 315 26.0 37.0 0.00 0.00 0.00 41 1004.2
20260504220018 60 315 24.0 37.0 0.00 0.00 0.00 39 1003.4
20260504213037 60 315 24.0 35.0 0.00 0.00 0.00 39 1003.1
20260504210038 60 315 23.0 35.0 0.00 0.00 0.00 39 1002.8
20260504203018 60 315 25.0 39.0 0.00 0.00 0.00 37 1003.0
20260504200038 61 315 24.0 37.0 0.00 0.00 0.00 37 1003.0
20260504193017 62 315 25.0 36.0 0.00 0.00 0.00 36 1002.5
20260504190057 62 315 26.0 37.0 0.00 0.00 0.00 30 1002.0
20260504183037 62 315 24.0 36.0 0.00 0.00 0.00 34 1001.7
20260504180017 62 315 24.0 34.0 0.00 0.00 0.00 38 1001.5
20260504173016 62 315 22.0 33.0 0.00 0.00 0.00 40 1001.2